Date,TemperatureHighF,TemperatureAvgF,TemperatureLowF,DewpointHighF,DewpointAvgF,DewpointLowF,HumidityHigh,HumidityAvg,HumidityLow,PressureMaxIn,PressureMinIn,WindSpeedMaxMPH,WindSpeedAvgMPH,GustSpeedMaxMPH,PrecipitationSumIn
2013-1-1,48,45,43,41,38,36,83,76,69,30.16,29.62,22,9,0,0.06
2013-1-2,52,50,45,48,45,39,87,85,79,30.42,30.17,15,7,0,0.00
2013-1-3,52,51,50,48,46,44,88,85,79,30.66,30.42,13,4,0,0.00
2013-1-4,53,51,49,47,46,44,86,83,79,30.66,30.55,13,4,0,0.00
2013-1-5,53,51,50,47,46,45,86,83,79,30.56,30.48,14,6,0,0.00
2013-1-6,50,49,48,47,46,44,88,87,85,30.49,30.31,10,4,0,0.02
2013-1-7,51,49,48,46,43,-100,88,83,80,30.31,30.19,11,-11,0,0.02
2013-1-8,53,52,50,49,48,46,88,86,82,30.20,30.14,15,6,0,0.05
2013-1-9,49,47,45,46,36,-100,88,83,88,30.05,30.01,5,2,0,0.00
2013-1-10,50,46,42,44,41,37,88,81,74,30.08,29.93,24,8,0,0.09
2013-1-11,51,47,44,46,42,39,88,82,74,30.09,29.67,17,5,0,0.01
2013-1-12,47,45,43,43,41,40,87,85,81,29.82,29.48,19,4,0,0.02
2013-1-13,44,40,36,40,34,32,85,80,74,30.16,29.82,17,4,0,0.01
2013-1-14,47,44,39,41,38,34,86,79,70,30.08,29.83,26,11,0,0.05
2013-1-15,46,43,41,38,34,-100,79,73,69,29.91,29.68,21,7,0,0.02
2013-1-16,44,43,43,39,35,31,84,73,64,29.93,29.62,18,8,0,0.10
2013-1-17,46,44,42,40,38,33,85,79,69,29.95,29.57,33,11,0,0.25
2013-1-18,45,30,40,42,-2,-100,88,61,85,29.57,29.24,29,-289,0,0.88
2013-1-19,37,35,34,31,30,29,81,80,78,29.46,29.38,10,3,0,0.00
2013-1-20,34,33,31,29,27,25,81,78,74,29.46,29.24,11,4,0,0.00
2013-1-21,42,35,31,37,30,27,86,82,78,29.38,29.22,8,3,0,0.20
2013-1-22,42,38,34,38,34,31,88,85,82,29.59,29.28,21,5,0,0.30
2013-1-23,42,39,36,35,33,32,85,81,77,29.69,29.58,14,3,0,0.01
2013-1-24,45,40,36,37,34,32,85,81,75,30.03,29.69,13,5,0,0.00
2013-1-25,51,46,42,47,41,36,88,82,73,29.98,29.39,33,14,0,0.20
2013-1-26,53,48,42,49,42,36,87,79,71,29.87,29.39,34,12,0,0.21
2013-1-27,53,47,41,50,40,36,88,77,68,29.68,29.30,28,14,0,0.06
2013-1-28,53,48,40,48,43,35,87,82,75,29.78,29.56,26,12,0,0.24
2013-1-29,54,53,51,51,50,47,89,88,86,29.64,29.52,30,16,0,0.30
2013-1-30,53,50,47,49,43,40,88,79,71,30.05,29.53,26,12,0,0.26
2013-1-31,51,50,46,46,43,40,85,78,72,30.00,29.86,26,14,0,0.06